Home   Weather   Richterswil   Past weeks

Flag for Switzerland Past Weather in Richterswil, Zurich, Switzerland — Yesterday and Last 2 Weeks

Now
58 °F

Cool.


Feels Like: 58 °F
Forecast: 49 / 72 °F
Wind: 2 mph from Southwest

Location: Zuerich-Fluntern

Current Time: Sep 27, 2016 at 10:57:48 AM

Latest Report: Sep 27, 2016 at 10:00 AM


Visibility: N/A

Pressure: 30.28 "Hg

Humidity: 87%

Dew Point: 54 °F

Location of RichterswilLocation

Past Weather in Richterswil — Graph

°F

Richterswil Temperature Yesterday

Maximum temperature yesterday: 68 °F (at 3:00 PM)
Minimum temperature yesterday: 54 °F (at 7:00 AM)
Average temperature yesterday: 60 °F

High & Low Weather Summary for the Past Weeks

 TemperatureHumidityPressure
High82 °F (Sep 12, 4:00 PM)100% (Sep 20, 3:00 AM)30.33 "Hg (Sep 20, 3:00 AM)
Low46 °F (Sep 22, 5:00 AM)45% (Sep 13, 4:00 PM)29.78 "Hg (Sep 15, 3:00 AM)
Average60 °F80%30.06 "Hg
* Reported Sep 12 9:00 AM — Sep 27 9:00 AM, Richterswil, Weather by CustomWeather, © 2016

Note: Actual official high and low records may vary slightly from our data, if they occured in-between our weather recording intervals... More about our weather records

Advertising

Richterswil Weather History for the Previous 24 Hours

Scroll right to see more
 ConditionsComfort  
Time TempWeatherWind HumidityBarometerVisibility
9:00 AM
Tue, Sep 27
58 °FCool.1 mph85%30.26 "HgN/A
8:00 AM56 °FCool.1 mph90%30.25 "HgN/A
7:00 AM57 °FCool.3 mph83%30.24 "HgN/A
6:00 AM56 °FCool.2 mph89%30.22 "HgN/A
5:00 AM58 °FCool.1 mph91%30.21 "HgN/A
4:00 AM58 °FCool.1 mph89%30.20 "HgN/A
3:00 AM59 °FCool.3 mph87%30.19 "HgN/A
2:00 AM59 °FCool.2 mph87%30.18 "HgN/A
1:00 AM59 °FCool.2 mph85%30.18 "HgN/A
12:00 AM60 °FCool.2 mph84%30.18 "HgN/A
11:00 PM
Mon, Sep 26
60 °FCool.2 mph84%30.18 "HgN/A
10:00 PM61 °FCool.3 mph81%30.17 "HgN/A
9:00 PM61 °FCool.2 mph82%30.16 "HgN/A
8:00 PM62 °FCool.3 mph77%30.14 "HgN/A
7:00 PM62 °FCool.3 mph77%30.12 "HgN/A
6:00 PM66 °FMild.2 mph64%30.10 "HgN/A
4:00 PM67 °FMild.3 mph58%30.09 "HgN/A
3:00 PM68 °FMild.5 mph60%30.09 "HgN/A
2:00 PM67 °FMild.3 mph66%30.11 "HgN/A
1:00 PM64 °FMild.3 mph74%30.15 "HgN/A
12:00 PM63 °FMild.3 mph76%30.16 "HgN/A
11:00 AM60 °FCool.5 mph82%30.17 "HgN/A
10:00 AM58 °FCool.1 mph89%30.17 "HgN/A
Weather by CustomWeather, © 2016

See weather overviewHow to use our weather pages